Location: Unspecified
(0.0000°N, 0.0000°E)
Time: 04:39:27

Vanguard 1 Rocket - Pass Details

Date: 09 December 2017
Orbit: 655 x 4222 km, 34.3° (Epoch: 22 March)

Event Time Altitude Azimuth Distance (km) Brightness Sun altitude
Rises 05:07:44 0° 279° (W) 7,904 - -10.3°
Exits shadow 05:12:05 - 273° (W) 7,023 11.3 -9.3°
Reaches altitude 10° 05:15:31 10° 267° (W) 6,315 11.1 -8.5°
Maximum altitude 05:28:34 24° 221° (SW) 3,975 10.5 -5.5°
Drops below altitude 10° 05:37:01 10° 171° (S) 3,940 11.1 -3.5°
Sets 05:40:28 0° 156° (SSE) 4,474 11.8 -2.7°
